This is the latest recevied weather packets stored in our database for station/object W4NDF-13. If no packets are shown the sender has not sent any weather packets the latest 1 day(s).
| Time | Temp. | Humidity | Pressure | Rain* | Wind** | Luminosity | Snow |
|---|---|---|---|---|---|---|---|
| 1778021709 | 26.11° C | 75% | 1012.8 hPa | 0 mm | 4.47 m/s, 184° | 177 W/m² | - |
| 1778021405 | 26.11° C | 75% | 1012.8 hPa | 0 mm | 4.02 m/s, 167° | 116 W/m² | - |
| 1778021102 | 26.11° C | 74% | 1012.6 hPa | 0 mm | 1.79 m/s, 181° | 136 W/m² | - |
| 1778020799 | 26.11° C | 74% | 1012.8 hPa | 0 mm | 2.68 m/s, 146° | 155 W/m² | - |
| 1778020495 | 26.11° C | 74% | 1012.7 hPa | 0 mm | 2.68 m/s, 220° | 152 W/m² | - |
| 1778020192 | 26.11° C | 74% | 1012.6 hPa | 0 mm | 3.58 m/s, 213° | 121 W/m² | - |
| 1778019888 | 26.67° C | 72% | 1012.5 hPa | 0 mm | 4.02 m/s, 214° | 128 W/m² | - |
| 1778019584 | 26.67° C | 71% | 1012.5 hPa | 0 mm | 3.58 m/s, 178° | 127 W/m² | - |
| 1778019282 | 27.22° C | 71% | 1012.4 hPa | 0 mm | 3.58 m/s, 123° | 193 W/m² | - |
| 1778018979 | 27.22° C | 70% | 1012.1 hPa | 0 mm | 4.02 m/s, 141° | 343 W/m² | - |
| 1778018676 | 26.67° C | 72% | 1011.9 hPa | 0 mm | 4.02 m/s, 235° | 316 W/m² | - |
| 1778018373 | 27.22° C | 71% | 1012.1 hPa | 0 mm | 4.02 m/s, 120° | 337 W/m² | - |
| 1778018071 | 27.22° C | 72% | 1012.3 hPa | 0 mm | 3.58 m/s, 200° | 385 W/m² | - |
| 1778017769 | 26.67° C | 72% | 1012.3 hPa | 0 mm | 4.92 m/s, 226° | 452 W/m² | - |
| 1778017467 | 26.67° C | 72% | 1012.3 hPa | 0 mm | 4.02 m/s, 193° | 457 W/m² | - |
| 1778017164 | 26.67° C | 71% | 1012.3 hPa | 0 mm | 4.47 m/s, 206° | 260 W/m² | - |
| 1778016861 | 26.67° C | 72% | 1012.5 hPa | 0 mm | 4.47 m/s, 205° | 301 W/m² | - |
| 1778016557 | 26.67° C | 72% | 1012.2 hPa | 0 mm | 5.36 m/s, 170° | 219 W/m² | - |
| 1778016254 | 26.67° C | 72% | 1012.3 hPa | 0 mm | 4.92 m/s, 188° | 168 W/m² | - |
| 1778015951 | 26.67° C | 72% | 1012.3 hPa | 0 mm | 3.58 m/s, 228° | 264 W/m² | - |
| 1778015648 | 26.67° C | 73% | 1012.3 hPa | 0 mm | 4.02 m/s, 151° | 258 W/m² | - |
| 1778015344 | 26.67° C | 72% | 1012.4 hPa | 0 mm | 4.92 m/s, 206° | 164 W/m² | - |
| 1778015041 | 26.67° C | 71% | 1012.8 hPa | 0 mm | 3.13 m/s, 206° | 194 W/m² | - |
| 1778014738 | 27.22° C | 70% | 1012.7 hPa | 0 mm | 3.58 m/s, 179° | 218 W/m² | - |
| 1778014436 | 27.22° C | 69% | 1012.8 hPa | 0 mm | 1.34 m/s, 210° | 255 W/m² | - |
* Rain latest hour (hover to see other rain measurements)
** Current wind speed in m/s (hover to see current wind gust speed)